Regional Weather Roundup
Issued by NWS

Home | Current Version | Previous Version | Graphics & Text | Print | Product List | Glossary On
Versions: 1 2 3 4 5 6 7 8 9 10 11 12 13 14 15 16 17 18 19 20 21 22 23 24 25 26 27 28 29 30 31 32 33 34 35 36 37 38 39 40 41 42 43 44 45 46 47 48 49 50
000
ASUS44 KMEG 221810
RWRTN
TENNESSEE HOURLY STATE WEATHER ROUNDUP
NATIONAL WEATHER SERVICE MEMPHIS TN
100 PM CDT THU JUN 22 2017

TNZ002-004-019-021-049-052-054-088>092-221900-
WEST TENNESSEE

CITY           SKY/WX    TMP DP  RH WIND       PRES   REMARKS
MEMPHIS INTL   PTSUNNY   88  77  69 S10       29.81F HX 100
NWS MEMPHIS      N/A     87 N/A N/A MISG        N/A
JACKSON        PTSUNNY   83  76  79 S15       29.85F HX  91
COVINGTON      PTSUNNY   82  77  83 S8        29.83F HX  91
UNION CITY     CLOUDY    77  73  88 S13       29.86F
BOLIVAR        CLOUDY    84  75  74 SE12G21   29.85F HX  92
PARIS          CLOUDY    77  73  88 SE8       29.88F
HUNTINGDON     CLOUDY    77  75  94 S8        29.88F FOG
LEXINGTON      CLOUDY    77  73  88 S8        29.89F
SELMER         CLOUDY    81  75  83 S15       29.87F
SAVANNAH       CLOUDY    81  75  83 S13       29.88F
$$

TNZ008-025-027-028-033-062-065-066-221900-
NORTH MIDDLE TENNESSEE

CITY           SKY/WX    TMP DP  RH WIND       PRES   REMARKS
NASHVILLE      LGT RAIN  75  72  90 S13       29.96F FOG
PORTLAND       PTSUNNY   72  72 100 SE9       29.95F FOG
CLARKSVILLE    LGT RAIN  75  71  87 SE9       29.93F
SMYRNA         LGT RAIN  75  73  93 SE12G18   29.96F FOG
COOKEVILLE     MOSUNNY   73  72  94 SE8       30.01F FOG
GALLATIN       CLOUDY    73  72  94 VRB7G15   29.98F FOG
CROSSVILLE     RAIN      70  68  93 VRB7      30.09F FOG
$$

TNZ061-075-076-078-094-096-097-221900-
SOUTH MIDDLE TENNESSEE

CITY           SKY/WX    TMP DP  RH WIND       PRES   REMARKS
FAYETTEVILLE   CLOUDY    75  73  94 S13       29.97F
TULLAHOMA        N/A     73  72  94 SE8       30.00F
WINCHESTER     CLOUDY    73  72  94 SE7         N/A
MCMINNVILLE    PTSUNNY   73  73 100 SE5       30.00F
COLUMBIA       CLOUDY    77  75  94 SE8       29.91F FOG
SHELBYVILLE    CLOUDY    73  73 100 SE10      29.96F
$$

TNZ017-018-042-046-047-221900-
NORTHEAST TENNESSEE

CITY           SKY/WX    TMP DP  RH WIND       PRES   REMARKS
TRI CITIES     LGT RAIN  71  69  93 E5        30.16F
ELIZABETHTON   CLOUDY    70  68  94 E5        30.17F FOG
$$

TNZ012-013-036-069-073-074-221900-
CENTRAL EAST TENNESSEE

CITY           SKY/WX    TMP DP  RH WIND       PRES   REMARKS
KNOXVILLE      LGT RAIN  76  70  82 E6        30.07F
OAK RIDGE      LGT RAIN  77  69  76 CALM      30.09F
DOWNTOWN KNOXV SUNNY     79  72  78 E5        30.07F
GATLINBURG     MOSUNNY   75  68  78 E5        30.08F
MORRISTOWN     MOSUNNY   77  72  83 E7        30.10F
JACKSBORO      CLOUDY    75  70  83 E5        30.12F
$$

TNZ083-085-099-221900-
SOUTHEAST TENNESSEE

CITY           SKY/WX    TMP DP  RH WIND       PRES   REMARKS
CHATTANOOGA    RAIN      74  72  93 S3        30.05S FOG
$$

SKY/WX REPORTED AS FAIR MEANS FEW OR NO CLOUDS BELOW
12 THOUSAND FEET.




USA.gov is the U.S. government's official web portal to all federal, state and local government web resources and services.